YO6IKB-10 Weather Reports


time (UTC)temp
C
wind
direction
speed
KPH
gust
KPH
rain 1hr
cm
rain 24hr
cm
rain mn
cm
humidity
%
barometer
mb
20260502232917 2 292 0.0 3.2 0.00 0.00 0.00 83 1018.1
20260502232417 2 292 0.0 0.0 0.00 0.00 0.00 82 1018.0
20260502231917 2 292 0.0 3.2 0.00 0.00 0.00 82 1017.9
20260502231416 2 225 0.0 0.0 0.00 0.00 0.00 82 1017.9
20260502230916 2 225 0.0 0.0 0.00 0.00 0.00 82 1017.9
20260502230416 2 225 0.0 0.0 0.00 0.00 0.00 82 1017.9
20260502225915 2 225 0.0 0.0 0.00 0.00 0.00 82 1018.1
20260502225415 2 225 0.0 0.0 0.00 0.00 0.00 82 1018.1
20260502224915 2 225 0.0 0.0 0.00 0.00 0.00 82 1018.2
20260502224415 2 225 0.0 0.0 0.00 0.00 0.00 82 1018.3
20260502223914 2 225 0.0 0.0 0.00 0.00 0.00 82 1018.3
20260502223414 2 225 0.0 0.0 0.00 0.00 0.00 82 1018.3
20260502222914 2 225 0.0 0.0 0.00 0.00 0.00 82 1018.4
20260502222413 3 225 0.0 0.0 0.00 0.00 0.00 82 1018.3
20260502221913 3 292 0.0 0.0 0.00 0.00 0.00 83 1018.4
20260502221413 3 315 0.0 0.0 0.00 0.00 0.00 83 1018.4
20260502220912 3 292 0.0 0.0 0.00 0.00 0.00 83 1018.4
20260502220412 3 292 0.0 0.0 0.00 0.00 0.00 84 1018.4
20260502215912 3 292 0.0 0.0 0.00 0.00 0.00 83 1018.4
20260502215412 3 292 0.0 0.0 0.00 0.00 0.00 83 1018.5
20260502214911 3 292 0.0 0.0 0.00 0.00 0.00 84 1018.6
20260502214411 3 292 0.0 0.0 0.00 0.00 0.00 84 1018.5
20260502213911 3 292 0.0 0.0 0.00 0.00 0.00 84 1018.6
20260502213410 3 292 0.0 0.0 0.00 0.00 0.00 84 1018.5
20260502212910 3 292 0.0 0.0 0.00 0.00 0.00 84 1018.4
20260502212410 3 292 0.0 0.0 0.00 0.00 0.00 84 1018.4
20260502211910 3 292 0.0 0.0 0.00 0.00 0.00 84 1018.5
20260502211409 3 292 0.0 0.0 0.00 0.00 0.00 84 1018.6
20260502210909 3 292 0.0 0.0 0.00 0.00 0.00 84 1018.7
20260502210409 3 292 0.0 0.0 0.00 0.00 0.00 83 1018.6
20260502205908 3 292 0.0 0.0 0.00 0.00 0.00 83 1018.6
20260502205408 3 292 0.0 0.0 0.00 0.00 0.00 82 1018.6
20260502204908 3 292 0.0 0.0 0.00 0.00 0.00 83 1018.6
20260502204407 3 292 0.0 0.0 0.00 0.00 0.00 82 1018.6
20260502203907 4 292 0.0 0.0 0.00 0.00 0.00 82 1018.6
20260502203407 4 292 0.0 0.0 0.00 0.00 0.00 82 1018.5
20260502202907 4 292 0.0 0.0 0.00 0.00 0.00 82 1018.5
20260502202406 4 292 0.0 0.0 0.00 0.00 0.00 82 1018.5
20260502201906 4 292 0.0 0.0 0.00 0.00 0.00 82 1018.6
20260502201406 4 292 0.0 0.0 0.00 0.00 0.00 82 1018.6
20260502200905 5 292 0.0 0.0 0.00 0.00 0.00 81 1018.6
20260502200405 5 292 0.0 0.0 0.00 0.00 0.00 80 1018.6
20260502195905 5 292 0.0 0.0 0.00 0.00 0.00 80 1018.5
20260502195405 5 292 0.0 0.0 0.00 0.00 0.00 81 1018.5
20260502194904 5 292 0.0 0.0 0.00 0.00 0.00 81 1018.6
20260502194404 5 292 0.0 0.0 0.00 0.00 0.00 81 1018.5
20260502193904 5 292 0.0 0.0 0.00 0.00 0.00 81 1018.7
20260502193403 5 292 0.0 0.0 0.00 0.00 0.00 80 1018.6
20260502192903 5 292 0.0 0.0 0.00 0.00 0.00 80 1018.7
20260502192403 5 292 0.0 1.6 0.00 0.00 0.00 80 1018.6
20260502191902 5 247 0.0 0.0 0.00 0.00 0.00 80 1018.6
20260502191402 5 247 0.0 0.0 0.00 0.00 0.00 80 1018.7
20260502190902 5 247 0.0 0.0 0.00 0.00 0.00 80 1018.6
20260502190402 5 247 0.0 0.0 0.00 0.00 0.00 80 1018.5
20260502185901 5 247 0.0 0.0 0.00 0.00 0.00 79 1018.5
20260502185401 5 247 0.0 0.0 0.00 0.00 0.00 79 1018.4
20260502184901 5 247 0.0 0.0 0.00 0.00 0.00 78 1018.4
20260502184400 5 247 0.0 0.0 0.00 0.00 0.00 78 1018.3
20260502183900 5 247 0.0 0.0 0.00 0.00 0.00 78 1018.3
20260502183400 6 247 0.0 0.0 0.00 0.00 0.00 78 1018.4
20260502182900 6 247 0.0 0.0 0.00 0.00 0.00 78 1018.3
20260502182359 6 247 0.0 0.0 0.00 0.00 0.00 78 1018.3
20260502181859 6 247 0.0 0.0 0.00 0.00 0.00 78 1018.3
20260502181359 6 247 0.0 0.0 0.00 0.00 0.00 78 1018.3
20260502180858 6 247 0.0 0.0 0.00 0.00 0.00 78 1018.2
20260502180358 6 247 0.0 0.0 0.00 0.00 0.00 77 1018.2
20260502170355 7 247 1.6 8.0 0.00 0.00 0.00 75 1018.1
20260502163853 7 315 0.0 0.0 0.00 0.00 0.00 73 1017.8
20260502163353 7 315 0.0 0.0 0.00 0.00 0.00 74 1017.9
20260502162853 7 315 0.0 0.0 0.00 0.00 0.00 74 1017.9
20260502162352 7 315 0.0 1.6 0.00 0.00 0.00 74 1017.9
20260502161852 7 292 0.0 3.2 0.00 0.00 0.00 75 1017.9
20260502161352 7 292 1.6 4.8 0.00 0.00 0.00 75 1017.8
20260502160851 7 315 0.0 3.2 0.00 0.00 0.00 75 1017.9
20260502160351 7 337 0.0 0.0 0.00 0.00 0.00 74 1017.9
20260502151848 6 45 0.0 0.0 0.00 0.00 0.00 76 1018.0
20260502151348 6 45 0.0 0.0 0.00 0.00 0.00 76 1018.0
20260502150848 6 45 0.0 0.0 0.00 0.00 0.00 76 1018.1
20260502150348 6 45 0.0 6.4 0.00 0.00 0.00 76 1018.2
20260502130340 6 67 17.7 25.7 0.00 0.00 0.00 79 1018.6
20260502123339 6 22 6.4 11.3 0.00 0.00 0.00 76 1018.5
20260502122838 7 22 1.6 12.9 0.00 0.00 0.00 75 1018.6
20260502122338 7 45 3.2 12.9 0.00 0.00 0.00 75 1018.6
20260502121838 7 45 3.2 3.2 0.00 0.00 0.00 74 1018.5
20260502121338 6 45 1.6 3.2 0.00 0.00 0.00 75 1018.5
20260502120837 6 67 0.0 6.4 0.00 0.00 0.00 75 1018.5
20260502120337 6 45 1.6 14.5 0.00 0.00 0.00 74 1018.5
20260502115837 6 45 8.0 14.5 0.00 0.00 0.00 73 1018.5
20260502115336 7 45 1.6 6.4 0.00 0.00 0.00 71 1018.6
20260502114836 7 315 3.2 14.5 0.00 0.00 0.00 67 1018.8
20260502114336 8 0 8.0 9.7 0.00 0.00 0.00 65 1018.6
20260502113836 10 292 3.2 17.7 0.00 0.00 0.00 60 1018.6
20260502113335 11 337 12.9 20.9 0.00 0.00 0.00 59 1018.5
20260502112835 11 292 6.4 16.1 0.00 0.00 0.00 57 1018.4
20260502112335 11 292 9.7 12.9 0.00 0.00 0.00 54 1018.3
20260502111834 11 292 6.4 9.7 0.00 0.00 0.00 53 1018.3
20260502111334 11 0 6.4 8.0 0.00 0.00 0.00 52 1018.3
20260502110834 12 0 1.6 9.7 0.00 0.00 0.00 53 1018.3
20260502110333 12 22 8.0 9.7 0.00 0.00 0.00 52 1018.3
20260502105833 13 0 4.8 9.7 0.00 0.00 0.00 53 1018.3
20260502105333 13 157 0.0 4.8 0.00 0.00 0.00 55 1018.3
20260502104833 12 67 1.6 8.0 0.00 0.00 0.00 55 1018.3
20260502104332 12 67 6.4 8.0 0.00 0.00 0.00 55 1018.4
20260502103832 12 67 0.0 9.7 0.00 0.00 0.00 56 1018.4
20260502103332 12 90 4.8 4.8 0.00 0.00 0.00 60 1018.5
20260502102831 11 225 1.6 9.7 0.00 0.00 0.00 62 1018.6
20260502102331 10 135 0.0 4.8 0.00 0.00 0.00 66 1018.6
20260502101831 10 90 0.0 4.8 0.00 0.00 0.00 65 1018.6
20260502101331 9 67 1.6 4.8 0.00 0.00 0.00 65 1018.7
20260502100830 9 135 0.0 8.0 0.00 0.00 0.00 65 1018.8
20260502100330 9 67 3.2 6.4 0.00 0.00 0.00 65 1019.0
20260502091327 6 45 8.0 12.9 0.00 0.00 0.00 72 1019.5
20260502090827 6 67 11.3 16.1 0.00 0.00 0.00 72 1019.5
20260502090326 6 45 6.4 17.7 0.00 0.00 0.00 71 1019.4
20260502071320 10 67 3.2 8.0 0.00 0.00 0.00 53 1018.9
20260502070820 10 22 3.2 8.0 0.00 0.00 0.00 53 1018.8
20260502070319 10 45 0.0 3.2 0.00 0.00 0.00 54 1018.8
20260502065819 10 45 1.6 9.7 0.00 0.00 0.00 54 1018.8
20260502065319 10 67 1.6 9.7 0.00 0.00 0.00 54 1018.8
20260502064819 10 67 0.0 3.2 0.00 0.00 0.00 54 1018.7
20260502064318 10 67 0.0 4.8 0.00 0.00 0.00 54 1018.7
20260502063818 10 67 0.0 4.8 0.00 0.00 0.00 54 1018.7
20260502063318 10 45 4.8 6.4 0.00 0.00 0.00 54 1018.8
20260502062817 10 67 1.6 4.8 0.00 0.00 0.00 54 1018.8
20260502062317 11 67 0.0 6.4 0.00 0.00 0.00 55 1018.9
20260502061817 10 45 0.0 3.2 0.00 0.00 0.00 56 1018.7
20260502061316 10 45 0.0 4.8 0.00 0.00 0.00 56 1018.9
20260502060816 10 45 0.0 6.4 0.00 0.00 0.00 56 1018.8
20260502060316 10 22 3.2 6.4 0.00 0.00 0.00 55 1018.8
20260502055816 10 22 0.0 6.4 0.00 0.00 0.00 55 1018.7
20260502055315 11 45 0.0 8.0 0.00 0.00 0.00 54 1018.8
20260502054815 12 22 6.4 6.4 0.00 0.00 0.00 52 1018.8
20260502054315 13 22 6.4 8.0 0.00 0.00 0.00 49 1018.7
20260502053814 14 67 0.0 3.2 0.00 0.00 0.00 49 1018.7
20260502053314 15 0 1.6 3.2 0.00 0.00 0.00 49 1018.6
20260502052814 15 0 0.0 3.2 0.00 0.00 0.00 48 1018.5
20260502052314 16 337 0.0 1.6 0.00 0.00 0.00 49 1018.7
20260502051813 15 315 0.0 1.6 0.00 0.00 0.00 52 1018.6
20260502051313 15 315 0.0 0.0 0.00 0.00 0.00 52 1018.6
20260502050813 14 315 0.0 3.2 0.00 0.00 0.00 53 1018.6
20260502050312 14 67 0.0 1.6 0.00 0.00 0.00 54 1018.5
20260502045812 13 67 0.0 3.2 0.00 0.00 0.00 54 1018.5
20260502045312 13 67 0.0 0.0 0.00 0.00 0.00 55 1018.5
20260502044811 12 67 0.0 0.0 0.00 0.00 0.00 56 1018.5
20260502044311 12 67 0.0 0.0 0.00 0.00 0.00 57 1018.5
20260502043811 11 67 0.0 0.0 0.00 0.00 0.00 58 1018.5
20260502043311 11 67 0.0 0.0 0.00 0.00 0.00 59 1018.4
20260502042810 10 67 0.0 0.0 0.00 0.00 0.00 61 1018.5
20260502042310 10 67 0.0 0.0 0.00 0.00 0.00 62 1018.4
20260502041810 10 67 0.0 0.0 0.00 0.00 0.00 62 1018.5
20260502041309 9 67 0.0 1.6 0.00 0.00 0.00 64 1018.5
20260502040809 9 67 0.0 0.0 0.00 0.00 0.00 65 1018.4
20260502040309 9 67 0.0 0.0 0.00 0.00 0.00 67 1018.4
20260502035809 8 67 0.0 0.0 0.00 0.00 0.00 68 1018.4
20260502035308 8 67 0.0 0.0 0.00 0.00 0.00 71 1018.5
20260502034808 7 67 0.0 0.0 0.00 0.00 0.00 73 1018.4
20260502034308 6 67 0.0 0.0 0.00 0.00 0.00 73 1018.4
20260502033807 6 67 0.0 1.6 0.00 0.00 0.00 74 1018.4
20260502033307 5 67 1.6 3.2 0.00 0.00 0.00 75 1018.4
20260502032807 5 67 0.0 4.8 0.00 0.00 0.00 76 1018.4
20260502032307 5 45 3.2 3.2 0.00 0.00 0.00 76 1018.3
20260502031806 5 45 0.0 6.4 0.00 0.00 0.00 76 1018.4
20260502031306 5 67 3.2 6.4 0.00 0.00 0.00 76 1018.3
20260502030806 5 45 3.2 6.4 0.00 0.00 0.00 75 1018.4
20260502030305 5 67 0.0 3.2 0.00 0.00 0.00 74 1018.4
20260502025805 5 45 1.6 6.4 0.00 0.00 0.00 74 1018.3
20260502025306 5 45 3.2 3.2 0.00 0.00 0.00 74 1018.3
20260502024804 5 67 3.2 4.8 0.00 0.00 0.00 73 1018.3
20260502024304 5 22 1.6 1.6 0.00 0.00 0.00 72 1018.3
20260502023804 5 0 0.0 0.0 0.00 0.00 0.00 72 1018.2
20260502023304 5 0 0.0 1.6 0.00 0.00 0.00 71 1018.3
20260502022803 5 0 0.0 0.0 0.00 0.00 0.00 71 1018.2
20260502022306 6 0 0.0 1.6 0.00 0.00 0.00 70 1018.2
20260502021803 6 0 0.0 0.0 0.00 0.00 0.00 70 1018.2
20260502021302 6 0 0.0 3.2 0.00 0.00 0.00 69 1018.2
20260502020802 6 337 0.0 3.2 0.00 0.00 0.00 68 1018.2
20260502020302 6 292 0.0 1.6 0.00 0.00 0.00 67 1018.2
20260502015802 6 292 0.0 0.0 0.00 0.00 0.00 67 1018.2
20260502015305 6 292 0.0 0.0 0.00 0.00 0.00 67 1018.2
20260502014801 6 292 0.0 0.0 0.00 0.00 0.00 67 1018.2
20260502014301 6 292 0.0 0.0 0.00 0.00 0.00 67 1018.2
20260502013800 6 292 0.0 0.0 0.00 0.00 0.00 66 1018.2
20260502013300 6 292 0.0 1.6 0.00 0.00 0.00 66 1018.2
20260502012800 6 292 1.6 3.2 0.00 0.00 0.00 66 1018.2
20260502012259 6 292 0.0 1.6 0.00 0.00 0.00 66 1018.2
20260502011759 6 292 0.0 0.0 0.00 0.00 0.00 66 1018.2
20260502011259 6 292 0.0 1.6 0.00 0.00 0.00 66 1018.2
20260502010759 6 292 0.0 1.6 0.00 0.00 0.00 66 1018.5
20260502010258 7 292 1.6 3.2 0.00 0.00 0.00 66 1018.5
20260502005758 7 292 0.0 0.0 0.00 0.00 0.00 66 1018.5
20260502005258 6 292 0.0 0.0 0.00 0.00 0.00 66 1018.6
20260502004757 6 292 0.0 0.0 0.00 0.00 0.00 66 1018.6
20260502004257 6 292 0.0 0.0 0.00 0.00 0.00 66 1018.6
20260502003757 6 292 0.0 0.0 0.00 0.00 0.00 66 1018.6
20260502003257 6 292 0.0 0.0 0.00 0.00 0.00 66 1018.6
20260502002756 6 292 0.0 0.0 0.00 0.00 0.00 66 1018.6
20260502002256 6 292 0.0 0.0 0.00 0.00 0.00 66 1018.7
20260502001756 6 292 0.0 0.0 0.00 0.00 0.00 67 1018.6
20260502001255 6 292 0.0 1.6 0.00 0.00 0.00 66 1018.7
20260502000755 6 292 0.0 3.2 0.00 0.00 0.00 66 1018.7
20260502000255 6 292 0.0 0.0 0.00 0.00 0.00 66 1018.9
20260501235754 6 292 0.0 4.8 0.00 0.00 0.00 65 1018.9
20260501235254 6 292 0.0 3.2 0.00 0.00 0.00 64 1019.0
20260501234754 6 292 0.0 3.2 0.00 0.00 0.00 64 1019.0
20260501234254 7 292 1.6 3.2 0.00 0.00 0.00 63 1019.0
20260501233753 7 292 0.0 6.4 0.00 0.00 0.00 62 1019.0
20260501233253 7 292 1.6 3.2 0.00 0.00 0.00 62 1019.0